Tracking 21155 objects as of 15-Aug-2020
HD Live streaming from Space Station
objects crossing your sky now

FENGYUN 1C DEB

Track FENGYUN 1C DEB now!
10-day predictions


NORAD ID: 31292
Int'l Code: 1999-025BPA
Perigee: 785.6 km
Apogee: 858.5 km
Inclination: 99.1 °
Period: 101.2 minutes
Semi major axis: 7193 km
RCS: 0.0053 m2 (small)
Launch date: May 10, 1999
Source: People's Republic of China (PRC)
Launch site: Taiyaun Space Center, China (TSC)

Note: This is SATELLITE DEBRIS
aabbcc
Your satellite tracking list
Your tracking list is empty




NASA's NSSDC Master Catalog

Two Line Element Set (TLE):
1 31292U 99025BPA 20228.04677813  .00001421  00000-0  64258-3 0  9998
2 31292  99.0834 314.3624 0050667 270.0712  89.4659 14.23091202690682
Source of the keplerian elements: AFSPC